« Back
NWS Peachtree City, Ga » Text Product » GA Regional Weather Roundup


Printer-friendly Version
Current Version              Previous Versions:   1  2  3  4  5  6  7  8  9  

Regional Weather Roundup

527
ASUS42 KFFC 051503
RWRGA
WEATHER ROUNDUP FOR GEORGIA
NATIONAL WEATHER SERVICE PEACHTREE CITY GA
1000 AM EST THU MAR 05 2015

NOTE: "FAIR" INDICATES FEW OR NO CLOUDS BELOW 12,000 FEET WITH NO
SIGNIFICANT WEATHER AND/OR OBSTRUCTIONS TO VISIBILITY.

* = USE WITH CAUTION. THE STATIONS MARKED WITH AN ASTERISK MAY NOT
REPORT WEATHER SUCH AS PRECIPITATION, FOG, OR THUNDER AND ARE NOT
QUALITY CONTROLLED BY NWS.

THE REMARK "TC" DENOTES TEMPERATURE READING IN DEGREES CELSIUS.

GAZ001>058-051600-
NORTH GEORGIA

CITY           SKY/WX    TMP DP  RH WIND       PRES   REMARKS
ATLANTA        DRIZZLE   45  43  93 NW22G35   30.01R FOG
ATHENS         CLOUDY    68  63  84 SW10G18   29.90S
CHAMBLEE       CLOUDY    43  41  93 W17G28    30.02R FOG
PEACHTREE CITY RAIN      55  53  93 NW17      29.99R FOG
ROME           LGT RAIN  39  37  92 NW9       30.12R FOG     WCI  33
WEST ATLANTA   LGT RAIN  43  39  86 NW13G23   30.03R FOG
GAINESVILLE    CLOUDY    50  48  93 W14G22    29.96R
CARTERSVILLE   CLOUDY    40  37  89 CALM      30.09R


CITY           SKY/WX    TMP DP  RH WIND       PRES   REMARKS
DALTON*        LGT RAIN  36  36 100 N17G29    30.10R WCI  25
MARIETTA       CLOUDY    41  40  99 NW16      30.03R
KENNESAW*      LGT RAIN  39  36  87 NW14G24   30.06R VSB 1   WCI  31
$$

GAZ059>098-102>109-051600-
CENTRAL GEORGIA

CITY           SKY/WX    TMP DP  RH WIND       PRES   REMARKS
AUGUSTA-BUSH   CLOUDY    71  63  75 S12       29.96R
AUGUSTA-DANIEL PTSUNNY   73  63  70 S18G26    29.96S
COLUMBUS       LGT RAIN  70  66  88 SW12      29.96S
MACON          CLOUDY    72  64  76 SW14G23   29.96F
ROBINS AFB     PTSUNNY   74  65  72 SW12G22   29.97S


CITY           SKY/WX    TMP DP  RH WIND       PRES   REMARKS
LAGRANGE*      LGT RAIN  62  60  93 NW20G30   30.00R
SYLVANIA*      PTSUNNY   74  66  76 SW8G21    30.01F
MILLEDGEVILLE* CLOUDY    72  68  88 S3        29.94F
$$

GAZ099>101-110>166-051600-
SOUTH GEORGIA

CITY           SKY/WX    TMP DP  RH WIND       PRES   REMARKS
SAVANNAH       MOSUNNY   77  63  61 S16G26    30.02S
VALDOSTA       CLOUDY    72  66  81 SW8       30.08R
ALMA           CLOUDY    72  64  76 SW13G23   30.05R
ST SIMONS      SUNNY     68  62  81 S8        30.07F
FT STEWART     PTSUNNY   77  64  65 S12G22    30.01S
ALBANY         CLOUDY    73  66  78 SW18G24   30.04R
HUNTER AFB     MOSUNNY   75  67  75 S14G20    30.01S
MOODY AFB      CLOUDY    75  64  69 S17       30.06R
BRUNSWICK      PTSUNNY   77  64  65 SW13G26   30.07F


CITY           SKY/WX    TMP DP  RH WIND       PRES   REMARKS
BAINBRIDGE*    MOSUNNY   77  70  78 SW9G16    30.05R
MOULTRIE*      CLOUDY    70  68  94 S8        30.07R
VIDALIA*       PTSUNNY   73  64  73 SW16G26   30.02S
WAYCROSS*      CLOUDY    77  69  76 SW18G24   30.06R
DOUGLAS*       CLOUDY    73  64  73 SW23G31   30.06S
$$



USA.gov is the U.S. government's official web portal to all federal, state and local government web resources and services.